Weather History for Abu Dhabi International Airport, UAE

Change the Weather History Date:

Wednesday, February 13, 2013

  Actual Average Record
Temperature  
Mean Temperature 74 °F -  
Max Temperature 87 °F 80 °F - ()
Min Temperature 61 °F 60 °F - ()
Cooling Degree Days 9    
Growing Degree Days 24 (Base 50)    
Moisture  
Dew Point 56 °F    
Average Humidity 58    
Maximum Humidity 88    
Minimum Humidity 18    
Precipitation  
Precipitation 0.00 in 0.05 in - ()
Sea Level Pressure  
Sea Level Pressure 29.92 in    
Wind  
Wind Speed 7 mph ()    
Max Wind Speed 17 mph    
Max Gust Speed -    
Visibility 4.9 miles    
Events      
T = Trace of Precipitation, MM = Missing Value Source: Averaged Metar Reports

Daily Weather History Graph

Daily Weather History Graph

Search for Another Location

Airport:

Trip Planner

Search our weather history database for the weather conditions in past years. The results will help you decide how hot, cold, wet, or windy it might be!

Date:

Astronomy

Feb. 13, 2013 Rise Set
Actual Time 6:56 AM GST 6:14 PM GST
Civil Twilight 6:33 AM GST 6:38 PM GST
Nautical Twilight 6:06 AM GST 7:05 PM GST
Astronomical Twilight 5:39 AM GST 7:31 PM GST
Moon 8:39 AM GST (2/13) 9:22 PM GST (2/13)
Length of Visible Light 12h 05m
Length of Day
11h 18m
Waxing Crescent, 11% of the Moon is Illuminated
Feb 13
Waxing Crescent
Feb 18
First Quarter
Feb 26
Full
Mar 5
Last Quarter
Mar 11
New

Hourly Weather History & Observations

Time (GST) Temp. Dew Point Humidity Pressure Visibility Wind Dir Wind Speed Gust Speed Precip Events Conditions
12:00 AM 69.8 °F 60.8 °F 73% 29.89 in - East 8.1 mph - N/A   Clear
1:00 AM 69 °F 60 °F 66% 29.90 in 6 mi East 5.8 mph - -  
1:00 AM 68.0 °F 60.8 °F 78% 29.89 in - East 5.8 mph - N/A   Clear
2:00 AM 66.2 °F 59.0 °F 78% 29.89 in - NE 5.8 mph - N/A   Clear
3:00 AM 66.2 °F 59.0 °F 78% 29.89 in 5.0 mi East 4.6 mph - N/A   Unknown
4:00 AM 63 °F 58 °F 80% 29.89 in 5 mi NNE 2.3 mph - -   Haze
4:00 AM 62.6 °F 59.0 °F 88% 29.89 in 5.0 mi NNE 2.3 mph - N/A   Unknown
5:00 AM 62.6 °F 59.0 °F 88% 29.89 in 4.3 mi SE 2.3 mph - N/A   Unknown
6:00 AM 62.6 °F 57.2 °F 82% 29.89 in 5.0 mi SE 4.6 mph - N/A   Unknown
7:00 AM 62 °F 57 °F 77% 29.93 in 3 mi ESE 5.8 mph - -   Haze
7:00 AM 62.6 °F 57.2 °F 82% 29.92 in 3.1 mi ESE 5.8 mph - N/A   Haze
8:00 AM 62.6 °F 57.2 °F 82% 29.95 in 3.7 mi ESE 9.2 mph - N/A   Unknown
9:00 AM 69.8 °F 53.6 °F 56% 29.98 in - SSE 12.7 mph - N/A   Clear
10:00 AM 75 °F 55 °F 39% 29.99 in 6 mi South 11.5 mph - -  
10:00 AM 75.2 °F 55.4 °F 50% 29.98 in - South 11.5 mph - N/A   Clear
11:00 AM 80.6 °F 51.8 °F 37% 29.98 in - South 8.1 mph - N/A   Clear
12:00 PM 82.4 °F 50.0 °F 32% 29.95 in - SSW 9.2 mph - N/A   Clear
1:00 PM 85 °F 48 °F 18% 29.94 in 6 mi SSW 9.2 mph - -  
1:00 PM 84.2 °F 48.2 °F 29% 29.92 in - SSW 9.2 mph - N/A   Clear
2:00 PM 87.8 °F 44.6 °F 22% 29.92 in - West 9.2 mph - N/A   Clear
3:00 PM 84.2 °F 48.2 °F 29% 29.89 in - NW 17.3 mph - N/A   Clear
4:00 PM 81 °F 47 °F 20% 29.90 in 6 mi NW 16.1 mph - -  
4:00 PM 80.6 °F 46.4 °F 30% 29.89 in - NW 16.1 mph - N/A   Clear
5:00 PM 80.6 °F 48.2 °F 32% 29.89 in - NW 13.8 mph - N/A   Clear
6:00 PM 77.0 °F 51.8 °F 41% 29.89 in - NW 12.7 mph - N/A   Clear
7:00 PM 75 °F 54 °F 37% 29.92 in 6 mi NW 8.1 mph - -  
7:00 PM 75.2 °F 53.6 °F 47% 29.92 in - NW 8.1 mph - N/A   Clear
8:00 PM 73.4 °F 55.4 °F 53% 29.92 in - NW 5.8 mph - N/A   Clear
9:00 PM 69.8 °F 62.6 °F 78% 29.95 in - NW 6.9 mph - N/A   Clear
10:00 PM 70 °F 67 °F 85% 29.95 in 5 mi NW 5.8 mph - -   Haze
10:00 PM 69.8 °F 66.2 °F 88% 29.95 in 5.0 mi NW 5.8 mph - N/A   Unknown
11:00 PM 69.8 °F 66.2 °F 88% 29.95 in 3.7 mi WNW 6.9 mph - N/A   Partly Cloudy